STARLINK-2060 (47669 NORAD) Tracking and Keplerian Element Data

This shows tracking and keplerian element data for the satellite.

Feedback or suggestion? Click here.




ElementValue
Catalog47669
NameSTARLINK-2060
Epoch Orbit177
Epoch Day101.91668981
Epoch Year2021
RAAN188.9241
Inclination53.0473
Eccentricity0.0002147
Argument of Perigee21.832
Mean Anonmoly51.4667
Mean Motion15.73221004
Decay Rate-9.602E-05
L11 47669U 21012BB 21101.91668981 -.00009602 00000-0 -63980-4 0 9990
L22 47669 53.0473 188.9241 0002147 21.8320 51.4667 15.73221004 1778

Live tracking and technical data element details for STARLINK-2060 (NORAD 47669). STARLINK-2060 can be tracked NOW for your location showing map with azimuth and elevation plus other details from your city location.

Track the satellite on the map from your city or location and see movement details for azimuth, elevation, latitude, longitude, range, height, and movement on the map or in text.







IsCatalogInMostPopularTable: catalog: 47669, numindb: 14
Update: records affected: 1



GetName: 47669 STARLINK-2060

Hit Count: updated at: Tue, 13 Apr 2021 05:32:53 GMT